CAPE
0 0 nan nan nan nan nan nan nan nan nan nan nan nan nan 7 4 4 8 10 10 3 1 nan nan nan 3 14 16 16 22 24 28 28 29 29 26 26 21 14 14 13 14 17 17 18 19 19 19 19 22 20 21 21 22 24 24 27 32 36 36 39 44 46 46 47 47 42 39 39 37 32 30 30 25 25 25 25 25 26 26 29 32 30 30 34
nan nan nan nan nan nan nan nan nan nan nan nan nan nan nan 2 3 3 6 7 7 5 4 2 2 1 1 8 15 15 18 22 28 28 29 25 20 20 15 11 11 12 13 17 17 17 17 17 17 18 19 21 22 22 26 29 29 31 34 35 35 38 42 42 42 41 38 36 33 33 30 28 26 26 24 23 23 23 25 26 26 27 27 29 29 29
0 nan nan nan nan nan nan nan nan nan nan nan nan nan nan 0 2 2 2 6 6 6 4 3 3 3 2 5 16 16 18 23 27 27 22 17 12 12 11 9 9 12 14 13 13 11 10 12 12 13 17 21 23 23 28 29 29 31 33 33 33 36 33 35 35 32 30 29 26 26 22 23 19 19 21 24 23 23 24 25 25 25 27 30 30 33
nan nan nan nan nan nan nan nan nan nan nan nan nan nan nan nan 1 1 2 3 3 4 4 3 3 3 1 2 13 13 19 22 21 21 14 10 8 8 8 10 10 11 9 6 6 4 3 5 5 8 12 18 23 23 25 27 27 30 30 32 32 32 29 27 27 26 24 24 23 23 20 21 19 19 21 21 24 24 23 25 25 26 29 33 33 35
nan nan nan nan nan nan nan nan nan nan 0 0 nan nan nan nan 0 0 2 2 2 1 1 1 1 1 1 nan 0 0 13 19 13 13 8 6 6 6 8 8 8 6 3 1 1 0 0 1 1 3 7 14 21 21 24 26 26 27 27 27 27 28 27 25 25 28 28 25 29 29 27 27 26 26 26 30 31 31 30 29 29 29 33 36 36 38
nan nan 0 nan nan 0 1 0 0 0 0 0 0 0 0 nan 1 1 1 0 0 0 1 0 0 nan nan nan nan nan 0 9 7 7 4 4 4 4 3 1 1 nan nan nan nan nan nan nan nan 2 6 13 20 20 23 23 23 25 26 25 25 25 24 23 23 24 23 23 24 24 23 27 27 27 30 32 32 32 31 30 30 31 32 34 34 35
nan 0 0 0 0 1 1 0 0 0 0 0 0 0 0 0 0 0 0 1 1 0 0 nan nan nan nan nan nan nan nan nan 1 1 0 nan nan nan nan nan nan nan nan nan nan nan nan 0 0 3 10 18 24 24 26 26 26 27 25 22 22 20 20 19 19 18 18 17 17 17 19 21 24 24 28 26 29 29 28 28 28 30 31 33 33 33
0 0 0 0 0 1 1 1 1 1 0 0 0 0 0 0 0 0 nan nan nan nan nan nan nan nan nan nan nan nan nan nan nan nan nan nan nan nan nan nan nan nan nan nan nan 0 2 8 8 15 20 20 23 23 23 18 18 14 11 11 11 8 9 8 8 9 9 9 10 10 12 14 15 15 17 17 17 17 17 21 21 25 29 32 32 34
nan 0 0 nan nan nan 0 1 nan nan nan nan nan nan nan nan nan nan nan nan nan nan nan nan nan nan nan nan nan nan nan nan nan nan nan nan nan nan nan nan nan nan nan nan nan 1 3 6 6 10 14 15 15 15 14 9 9 7 4 4 4 5 6 5 5 5 5 5 7 7 8 10 13 13 14 15 14 14 15 17 17 20 25 30 30 35
nan nan 0 0 0 nan nan nan nan nan nan nan nan nan nan nan nan nan nan nan nan nan nan nan nan nan nan nan nan nan nan nan nan nan nan nan nan nan nan nan nan nan nan nan nan 0 1 1 1 3 6 7 8 8 7 4 4 2 2 1 1 2 2 2 2 2 3 3 5 5 6 9 11 11 14 14 14 14 13 14 14 15 21 28 28 32
nan nan nan nan nan nan nan nan nan nan nan nan nan nan nan nan nan nan nan nan nan nan nan nan nan nan nan nan nan nan nan nan nan nan nan nan nan nan nan nan nan nan nan nan nan nan nan nan nan 0 0 1 0 0 nan nan nan nan nan nan nan nan 0 0 0 0 1 3 5 5 7 9 11 11 13 13 14 14 15 15 15 15 17 23 23 30
nan nan nan nan nan nan nan nan nan nan nan nan nan nan nan nan nan nan nan nan nan nan nan nan nan nan nan nan nan nan nan nan nan nan nan nan nan nan nan nan nan nan nan nan nan nan nan nan nan nan nan nan nan nan nan nan nan nan nan nan nan nan nan nan nan 0 2 4 7 7 9 10 13 13 13 14 16 16 17 15 15 16 18 22 22 28
nan nan nan nan nan nan nan nan nan nan nan nan nan nan nan nan nan nan nan nan nan nan nan nan nan nan nan nan nan nan nan nan nan nan nan nan nan nan nan nan nan nan nan nan nan nan nan nan nan nan nan nan nan nan nan nan nan nan nan nan nan nan nan 0 0 2 4 7 10 10 11 13 13 13 16 16 17 17 17 16 16 18 20 25 25 29
nan nan nan nan nan nan nan nan nan nan nan nan nan nan nan nan nan nan nan nan nan nan nan nan nan nan nan nan nan nan nan nan nan nan nan nan nan nan nan nan nan nan nan nan nan nan nan nan nan nan nan nan nan nan nan nan nan nan nan nan nan nan 0 2 2 5 7 11 12 12 12 13 15 15 16 16 16 16 17 19 19 22 24 26 26 33
nan nan nan nan nan nan nan nan nan nan nan nan nan nan nan nan nan nan nan nan nan nan nan nan nan nan nan nan nan nan nan nan nan nan nan nan nan nan nan nan nan nan nan nan nan nan nan nan nan nan nan nan nan nan nan nan nan nan nan nan nan 1 2 5 5 7 10 12 12 12 13 13 14 14 16 15 16 16 17 20 20 24 27 28 28 31
nan nan nan nan nan nan nan nan nan nan nan nan nan nan nan nan nan nan nan nan nan nan nan nan nan nan nan nan nan nan nan nan nan nan nan nan nan nan nan nan nan nan nan nan nan nan nan nan nan nan nan nan nan nan nan nan nan nan 0 1 1 3 4 7 7 8 9 11 12 12 11 13 15 15 16 15 17 17 21 22 22 24 27 27 27 29
nan nan nan nan nan nan nan nan nan nan nan nan nan nan nan nan nan nan nan nan nan nan nan nan nan nan nan nan nan nan nan nan nan nan nan nan nan nan nan nan nan nan nan nan nan nan nan nan nan nan nan nan nan nan nan nan nan nan 1 2 2 3 5 6 6 7 8 9 10 10 12 13 14 14 17 17 19 19 22 21 21 24 24 26 26 28
nan nan nan nan nan nan nan nan nan nan nan nan nan nan nan nan nan nan nan nan nan nan nan nan nan nan nan nan nan nan nan nan nan nan nan nan nan nan nan nan nan nan nan nan nan nan nan nan nan nan nan nan nan nan nan nan nan 0 1 2 2 3 4 6 6 7 8 9 9 9 11 12 14 14 17 17 17 17 19 19 19 21 24 26 26 28
nan nan nan nan nan nan nan nan nan nan nan nan nan nan nan nan nan nan nan nan nan nan nan nan nan nan nan nan nan nan nan nan nan nan nan nan nan nan nan nan nan nan nan nan nan nan nan nan nan nan nan nan nan nan nan nan nan nan 0 1 1 3 4 5 5 8 8 9 10 10 13 13 15 15 14 15 15 15 17 19 19 21 24 24 24 25
nan nan nan nan nan nan nan nan nan nan nan nan nan nan nan nan nan nan nan nan nan nan nan nan nan nan nan nan nan nan nan nan nan nan nan nan nan nan nan nan nan nan nan nan nan nan nan nan nan nan nan nan nan nan nan nan nan nan 0 1 1 2 4 5 5 6 8 9 12 12 13 13 13 13 13 14 15 15 17 20 20 21 22 23 23 21
nan nan nan nan nan nan nan nan nan nan nan nan nan nan nan nan nan nan nan nan nan nan nan nan nan nan nan nan nan nan nan nan nan nan nan nan nan nan nan nan nan nan nan nan nan nan nan nan nan nan nan nan nan nan nan nan nan 0 0 1 1 2 3 4 4 6 6 8 10 10 13 13 13 13 13 13 15 15 16 18 18 20 19 19 19 18
nan nan nan nan nan nan nan nan nan nan nan nan nan nan nan nan nan nan nan nan nan nan nan nan nan nan nan nan nan nan nan nan nan nan nan nan nan nan nan nan nan nan nan nan nan nan nan nan nan nan nan nan nan nan nan nan nan 0 0 1 1 2 3 4 4 5 7 8 9 9 11 13 13 13 14 14 14 14 15 16 16 17 17 18 18 18
nan nan nan nan nan nan nan nan nan nan nan nan nan nan nan nan nan nan nan nan nan nan nan nan nan nan nan nan nan nan nan nan nan nan nan nan nan nan nan nan nan nan nan nan nan nan nan nan nan nan nan nan nan nan nan 0 0 0 1 2 2 2 3 4 4 6 7 9 9 9 12 13 13 13 13 13 13 13 14 15 15 16 16 17 17 18
nan nan nan nan nan nan nan nan nan nan nan nan nan nan nan nan nan nan nan nan nan nan nan nan nan nan nan nan nan nan nan nan nan nan nan nan nan nan nan nan nan nan nan nan nan nan nan nan nan nan nan nan nan nan nan 0 0 0 1 2 2 2 4 5 5 6 7 7 8 8 10 10 11 11 11 12 12 12 12 13 13 14 15 17 17 18
nan nan nan nan nan nan nan nan nan nan nan nan nan nan nan nan nan nan nan nan nan nan nan nan nan nan nan nan nan nan nan nan nan nan nan nan nan nan nan nan nan nan nan nan nan nan nan nan nan nan nan nan nan nan nan 0 0 1 2 2 2 3 4 5 5 4 6 6 6 6 6 7 7 7 9 10 12 12 12 14 14 14 14 16 16 16
nan nan nan nan nan nan nan 10 26 26 nan nan nan nan nan nan nan nan nan nan nan nan nan nan nan 0 nan nan nan nan nan nan nan nan nan nan nan nan nan nan nan nan nan nan nan nan nan nan nan nan nan nan nan nan nan nan nan 1 2 2 2 2 3 2 2 2 2 3 3 3 5 6 7 7 9 11 11 11 14 13 13 14 14 15 15 15
3 nan 6 8 8 7 6 3 2 2 15 5 nan nan nan nan nan nan nan nan nan nan nan 1 1 nan nan nan nan nan nan nan nan nan nan nan nan nan nan nan nan nan nan nan nan nan nan nan nan nan nan nan nan nan nan nan nan 0 1 0 0 0 0 0 0 0 0 1 2 2 4 6 8 8 10 12 12 12 14 13 13 14 14 13 13 13
4 4 2 nan nan nan nan nan nan nan nan 5 17 17 2 nan nan nan nan nan nan nan nan nan nan nan nan nan nan nan nan nan nan nan nan nan nan nan nan nan nan nan nan nan nan nan nan nan nan nan nan nan nan nan nan nan nan nan nan nan nan nan nan nan nan nan 0 0 2 2 4 6 9 9 10 12 12 12 12 13 13 14 13 8 8 0
1 0 nan nan nan nan nan nan nan nan nan nan 3 3 nan nan nan nan nan nan nan nan nan 1 1 0 nan nan nan nan nan nan nan nan nan nan nan nan nan nan nan nan nan nan nan nan nan nan nan nan nan nan nan nan nan nan nan nan nan nan nan nan nan nan nan nan nan 0 1 1 3 6 7 7 9 11 12 12 12 13 13 14 12 4 4 nan
nan nan nan nan nan nan nan nan nan nan nan nan 0 0 nan nan nan nan nan nan nan nan nan 0 0 0 nan nan nan nan nan nan nan nan nan nan nan nan nan nan nan nan nan nan nan nan nan nan nan nan nan nan nan nan nan nan nan nan nan nan nan nan nan nan nan nan nan 0 1 1 3 5 6 6 7 9 11 11 12 13 13 10 4 nan nan nan
nan nan nan nan nan nan nan nan nan nan nan nan nan nan nan nan nan nan nan nan nan nan nan nan nan nan nan 0 0 0 nan nan nan nan nan nan nan nan nan nan nan nan nan nan nan nan nan nan nan nan nan nan nan nan nan nan nan nan nan nan nan nan nan nan nan nan nan 0 1 1 2 4 5 5 7 9 10 10 13 13 13 9 nan nan nan nan
nan nan nan nan nan nan nan nan nan nan nan nan nan nan nan nan nan nan nan nan nan nan nan nan nan nan nan 0 nan nan 0 nan nan nan nan nan nan nan nan nan nan nan nan nan nan nan nan nan nan nan nan nan nan nan nan nan nan nan nan nan nan nan nan nan nan nan nan 0 0 0 1 1 2 2 3 5 7 7 8 8 8 9 2 nan nan nan
nan nan nan nan nan nan nan nan nan nan nan nan nan nan nan nan nan nan nan nan nan nan nan nan nan nan nan nan 0 0 nan nan 0 0 0 nan nan nan nan nan nan nan nan nan nan nan nan nan nan nan nan nan nan nan nan nan nan nan nan nan nan nan nan nan nan nan nan nan nan nan 0 0 0 0 1 2 3 3 5 6 6 7 8 nan nan nan
nan nan nan nan nan nan nan nan nan nan nan nan nan nan nan nan nan nan nan nan nan nan nan nan nan nan nan nan 0 0 nan nan 2 2 1 nan nan nan nan nan nan nan nan nan nan nan nan nan nan nan nan nan nan nan nan nan nan nan nan nan nan nan nan nan nan nan nan nan nan nan nan nan nan nan nan 0 1 1 2 4 4 7 14 7 7 3
nan nan nan nan nan nan nan nan nan nan nan nan nan nan nan nan nan nan nan nan nan nan nan nan nan nan nan nan nan nan 0 nan nan nan 3 nan nan nan nan nan nan nan nan nan nan nan nan nan nan nan nan nan nan nan nan nan nan nan nan nan nan nan nan nan nan nan nan nan nan nan nan nan nan nan nan nan 1 1 4 7 7 11 14 19 19 14
nan nan nan nan nan nan nan nan nan nan nan nan nan nan nan nan nan nan nan nan nan nan nan nan nan nan nan nan nan nan nan nan nan nan nan nan nan nan nan nan nan nan nan nan nan nan nan nan nan nan 0 nan nan nan nan nan nan nan nan nan nan nan nan nan nan nan nan nan nan nan nan nan nan nan nan nan 3 3 8 10 10 13 14 17 17 17
nan nan nan nan nan nan nan nan nan nan nan nan nan nan nan nan nan nan nan nan nan nan nan nan nan nan nan nan nan nan nan nan nan nan nan nan nan nan nan nan nan nan nan nan nan nan nan nan nan nan nan nan nan nan nan nan nan nan nan nan nan nan nan nan nan nan nan nan nan nan nan nan nan nan nan 0 2 2 7 10 10 8 10 10 10 12
nan nan nan nan nan nan nan nan nan nan nan nan nan nan nan nan nan nan nan nan nan nan nan nan nan nan nan nan nan nan nan nan nan nan nan nan nan nan nan nan nan nan nan nan nan nan nan nan nan nan nan nan nan nan nan nan nan nan nan nan nan nan nan nan nan nan nan nan nan nan nan nan nan nan nan nan nan nan nan nan nan nan 3 4 4 9
nan nan nan nan nan nan nan nan nan nan nan nan nan nan nan nan nan nan nan nan nan nan nan nan nan nan nan nan nan nan nan nan nan nan nan nan nan nan nan nan nan nan nan nan nan nan nan nan nan nan nan nan nan nan nan nan nan nan nan nan nan nan nan nan nan nan nan nan nan nan nan nan nan nan nan nan nan nan nan nan nan nan nan nan nan nan
nan nan nan nan nan nan nan nan nan nan nan nan nan nan nan nan nan nan nan nan nan nan nan nan nan nan nan nan nan nan nan nan nan nan nan nan nan nan nan nan nan nan nan nan nan nan nan nan nan nan nan nan nan nan nan nan nan nan 0 nan nan nan nan nan nan nan nan nan nan nan nan nan nan nan nan nan nan nan nan nan nan nan nan nan nan nan
nan nan nan nan nan nan nan nan nan nan nan nan nan nan nan nan nan nan nan nan nan nan nan nan nan nan nan nan nan nan nan nan nan nan nan nan nan nan nan nan nan nan nan nan nan nan nan nan nan 0 0 nan nan nan nan nan nan 1 3 nan nan nan nan nan nan nan nan nan nan nan nan nan nan nan nan nan nan nan nan nan nan nan nan nan nan nan
nan nan nan nan nan nan nan nan nan nan nan nan nan nan nan nan nan nan nan nan nan nan nan nan nan nan nan nan nan nan nan nan nan nan nan nan nan nan nan nan nan nan nan nan nan nan 0 0 0 0 nan nan nan nan nan nan nan 0 1 nan nan nan nan nan nan nan nan nan nan nan nan nan nan nan nan nan nan nan nan nan nan nan nan nan nan nan
nan nan nan nan nan nan nan nan nan nan nan nan nan nan nan nan nan nan nan nan nan nan nan nan nan nan nan nan nan nan nan nan nan nan nan nan nan nan nan nan nan nan nan nan nan nan nan 0 0 nan nan nan nan nan nan nan nan nan nan 0 0 0 nan nan nan nan nan nan nan nan nan nan nan nan nan nan nan nan nan nan nan nan 0 nan nan nan
nan nan nan nan nan nan nan nan nan nan nan nan nan nan nan nan nan nan nan nan nan nan nan nan nan nan nan nan nan nan nan nan nan nan nan nan nan nan nan nan nan nan nan nan nan nan nan nan nan nan nan nan nan nan nan nan nan nan nan 0 0 nan nan nan nan nan nan nan nan nan nan nan nan nan nan nan nan nan nan nan nan nan nan nan nan nan
nan nan nan nan nan nan 0 1 1 1 nan nan nan nan nan nan nan nan nan nan nan nan nan nan nan nan nan nan nan nan nan nan nan nan nan nan 7 7 nan nan nan nan nan nan nan nan nan nan nan nan nan nan nan nan nan nan nan nan nan 0 0 0 nan nan nan nan nan nan nan nan nan nan nan nan nan nan nan nan nan nan nan nan nan nan nan nan
nan nan nan nan nan nan 2 2 1 1 nan nan nan nan nan nan nan nan nan nan nan nan nan nan nan nan nan nan nan nan nan nan nan nan nan nan nan nan nan nan nan nan nan nan nan nan nan nan nan nan nan nan nan nan nan nan nan nan nan 0 0 nan nan nan nan nan nan nan nan nan nan nan nan nan nan nan nan nan nan nan nan nan nan nan nan nan
nan nan nan nan nan nan 0 0 nan nan nan nan nan nan nan nan nan nan nan nan nan nan nan nan nan nan nan nan nan nan nan nan nan nan nan nan nan nan nan nan nan nan nan nan nan nan nan nan nan nan nan nan nan nan nan nan nan nan nan nan nan nan nan nan nan nan nan nan nan nan nan nan nan nan nan nan nan nan nan nan nan nan nan nan nan nan
nan nan nan nan nan nan nan nan nan nan nan nan nan nan nan nan nan nan nan nan nan nan nan nan nan nan nan nan nan nan nan nan nan nan nan nan nan nan nan nan nan nan nan nan nan nan nan nan nan nan nan nan nan nan nan nan nan nan nan nan nan nan nan nan nan nan nan nan nan nan nan nan nan nan nan nan nan nan nan nan nan nan nan nan nan nan
nan nan nan nan nan nan nan nan nan nan nan nan nan nan nan nan 3 3 nan nan nan nan nan nan nan nan nan nan nan nan nan nan nan nan nan nan nan nan nan nan nan nan nan nan nan nan nan nan nan nan nan nan nan nan nan nan nan nan nan nan nan nan nan nan nan nan nan nan nan nan nan nan nan nan nan nan nan nan nan nan nan nan nan nan nan nan
nan nan nan nan nan nan nan nan nan nan nan nan nan nan nan nan nan nan nan nan nan nan nan nan nan nan nan nan nan nan nan nan nan nan nan nan nan nan nan nan nan nan nan nan nan nan nan nan nan nan 0 nan nan nan nan nan nan nan nan nan nan nan nan nan nan nan nan nan nan nan nan nan nan nan nan nan nan nan nan nan nan nan nan nan nan nan
nan nan nan nan nan nan nan nan nan nan nan nan nan nan nan nan nan nan nan nan nan nan nan nan nan nan nan nan nan nan nan nan nan nan nan nan nan nan nan nan nan nan nan nan nan nan nan nan nan nan nan 8 nan nan nan nan nan nan nan nan nan nan nan nan nan nan nan nan nan nan nan nan nan nan nan nan nan nan nan nan nan nan nan nan nan nan
CIN
-0 -0 nan nan nan nan nan nan nan nan nan nan nan nan nan -0 -0 -0 0 -0 -0 -0 -1 nan nan nan -0 0 0 0 0 0 0 0 0 0 0 0 0 0 0 0 0 0 0 0 0 0 0 0 0 0 0 0 0 0 0 0 0 0 0 0 0 0 0 0 0 0 0 0 0 0 0 0 0 0 0 0 0 0 0 0 0 0 0 0
nan nan nan nan nan nan nan nan nan nan nan nan nan nan nan 0 0 0 0 0 0 0 0 0 0 -0 -0 0 0 0 0 0 0 0 0 0 0 0 0 0 0 0 0 0 0 0 0 0 0 0 0 0 0 0 0 0 0 0 0 0 0 0 0 0 0 0 0 0 0 0 0 0 0 0 0 0 0 0 0 0 0 0 0 0 0 0
-0 nan nan nan nan nan nan nan nan nan nan nan nan nan nan 0 0 0 0 0 0 0 0 0 0 0 -0 0 0 0 0 0 0 0 0 0 0 0 0 0 0 0 0 0 0 0 0 0 0 0 0 0 0 0 0 0 0 0 0 0 0 0 0 0 0 0 0 0 0 0 0 0 0 0 0 0 0 0 0 0 0 0 0 0 0 0
nan nan nan nan nan nan nan nan nan nan nan nan nan nan nan nan 0 0 0 0 0 0 0 -0 -0 -0 -0 -0 0 0 0 0 0 0 0 0 0 0 0 0 0 0 0 0 0 0 0 0 0 0 0 0 0 0 0 0 0 0 0 0 0 0 0 0 0 0 0 0 0 0 0 0 0 0 0 0 0 0 0 0 0 0 0 0 0 0
nan nan nan nan nan nan nan nan nan nan -0 -0 nan nan nan nan -0 -0 0 0 0 0 -0 -1 -1 -1 -0 nan -1 -1 0 0 0 0 0 0 0 0 0 0 0 0 0 0 0 0 0 0 0 0 0 0 0 0 0 0 0 0 0 0 0 0 0 0 0 0 0 0 0 0 0 0 0 0 0 0 0 0 0 0 0 0 0 0 0 0
nan nan -0 nan nan 0 0 -0 -0 -0 -0 0 -0 -0 -0 nan 0 0 0 0 0 0 -0 -0 -0 nan nan nan nan nan -1 0 0 0 0 0 0 0 0 0 0 nan nan nan nan nan nan nan nan 0 0 0 0 0 0 0 0 0 0 0 0 0 0 0 0 0 0 0 0 0 0 0 0 0 0 0 0 0 0 0 0 0 0 0 0 0
nan -0 -0 -0 -0 -0 -0 -0 -0 -0 0 0 0 0 -0 0 0 0 0 0 0 0 -0 nan nan nan nan nan nan nan nan nan -0 -0 -0 nan nan nan nan nan nan nan nan nan nan nan nan 0 0 0 0 0 0 0 0 0 0 0 0 0 0 0 0 0 0 0 0 0 0 0 0 0 0 0 0 0 0 0 0 0 0 0 0 0 0 0
-0 -0 -0 -0 -0 -0 -0 0 -0 -0 -0 -0 0 0 0 -0 0 0 nan nan nan nan nan nan nan nan nan nan nan nan nan nan nan nan nan nan nan nan nan nan nan nan nan nan nan 0 0 0 0 0 0 0 0 0 0 0 0 0 0 0 0 0 0 0 0 0 0 0 0 0 0 0 0 0 0 0 0 0 0 0 0 0 0 0 0 0
nan -0 -0 nan nan nan -0 0 nan nan nan nan nan nan nan nan nan nan nan nan nan nan nan nan nan nan nan nan nan nan nan nan nan nan nan nan nan nan nan nan nan nan nan nan nan 0 0 0 0 0 0 0 0 0 0 0 0 0 0 0 0 0 0 0 0 0 0 0 0 0 0 0 0 0 0 0 0 0 0 0 0 0 0 0 0 0
nan nan -0 0 0 nan nan nan nan nan nan nan nan nan nan nan nan nan nan nan nan nan nan nan nan nan nan nan nan nan nan nan nan nan nan nan nan nan nan nan nan nan nan nan nan -0 0 0 0 0 0 0 0 0 0 0 0 -0 0 0 0 0 0 0 0 0 0 0 0 0 0 0 0 0 0 0 0 0 0 0 0 0 0 0 0 0
nan nan nan nan nan nan nan nan nan nan nan nan nan nan nan nan nan nan nan nan nan nan nan nan nan nan nan nan nan nan nan nan nan nan nan nan nan nan nan nan nan nan nan nan nan nan nan nan nan -0 0 0 0 0 nan nan nan nan nan nan nan nan 0 0 0 0 0 0 0 0 0 0 0 0 0 0 0 0 0 0 0 0 0 0 0 0
nan nan nan nan nan nan nan nan nan nan nan nan nan nan nan nan nan nan nan nan nan nan nan nan nan nan nan nan nan nan nan nan nan nan nan nan nan nan nan nan nan nan nan nan nan nan nan nan nan nan nan nan nan nan nan nan nan nan nan nan nan nan nan nan nan 0 0 0 0 0 0 0 0 0 0 0 0 0 0 0 0 0 0 0 0 0
nan nan nan nan nan nan nan nan nan nan nan nan nan nan nan nan nan nan nan nan nan nan nan nan nan nan nan nan nan nan nan nan nan nan nan nan nan nan nan nan nan nan nan nan nan nan nan nan nan nan nan nan nan nan nan nan nan nan nan nan nan nan nan 0 0 0 0 0 0 0 0 0 0 0 0 0 0 0 0 0 0 0 0 0 0 0
nan nan nan nan nan nan nan nan nan nan nan nan nan nan nan nan nan nan nan nan nan nan nan nan nan nan nan nan nan nan nan nan nan nan nan nan nan nan nan nan nan nan nan nan nan nan nan nan nan nan nan nan nan nan nan nan nan nan nan nan nan nan 0 0 0 0 0 0 0 0 0 0 0 0 0 0 0 0 0 0 0 0 0 0 0 0
nan nan nan nan nan nan nan nan nan nan nan nan nan nan nan nan nan nan nan nan nan nan nan nan nan nan nan nan nan nan nan nan nan nan nan nan nan nan nan nan nan nan nan nan nan nan nan nan nan nan nan nan nan nan nan nan nan nan nan nan nan 0 0 0 0 0 0 0 0 0 0 0 0 0 0 0 0 0 0 0 0 0 0 0 0 0
nan nan nan nan nan nan nan nan nan nan nan nan nan nan nan nan nan nan nan nan nan nan nan nan nan nan nan nan nan nan nan nan nan nan nan nan nan nan nan nan nan nan nan nan nan nan nan nan nan nan nan nan nan nan nan nan nan nan 0 0 0 0 0 0 0 0 0 0 0 0 0 0 0 0 0 0 0 0 0 0 0 0 0 0 0 0
nan nan nan nan nan nan nan nan nan nan nan nan nan nan nan nan nan nan nan nan nan nan nan nan nan nan nan nan nan nan nan nan nan nan nan nan nan nan nan nan nan nan nan nan nan nan nan nan nan nan nan nan nan nan nan nan nan nan 0 0 0 0 0 0 0 0 0 0 0 0 0 0 0 0 0 0 0 0 0 0 0 0 0 0 0 0
nan nan nan nan nan nan nan nan nan nan nan nan nan nan nan nan nan nan nan nan nan nan nan nan nan nan nan nan nan nan nan nan nan nan nan nan nan nan nan nan nan nan nan nan nan nan nan nan nan nan nan nan nan nan nan nan nan 0 0 0 0 0 0 0 0 0 0 0 0 0 0 0 0 0 0 0 0 0 0 0 0 0 0 0 0 0
nan nan nan nan nan nan nan nan nan nan nan nan nan nan nan nan nan nan nan nan nan nan nan nan nan nan nan nan nan nan nan nan nan nan nan nan nan nan nan nan nan nan nan nan nan nan nan nan nan nan nan nan nan nan nan nan nan nan 0 0 0 0 0 0 0 0 0 0 0 0 0 0 0 0 0 0 0 0 0 0 0 0 0 0 0 0
nan nan nan nan nan nan nan nan nan nan nan nan nan nan nan nan nan nan nan nan nan nan nan nan nan nan nan nan nan nan nan nan nan nan nan nan nan nan nan nan nan nan nan nan nan nan nan nan nan nan nan nan nan nan nan nan nan nan 0 0 0 0 0 0 0 0 0 0 0 0 0 0 0 0 0 0 0 0 0 0 0 0 0 0 0 0
nan nan nan nan nan nan nan nan nan nan nan nan nan nan nan nan nan nan nan nan nan nan nan nan nan nan nan nan nan nan nan nan nan nan nan nan nan nan nan nan nan nan nan nan nan nan nan nan nan nan nan nan nan nan nan nan nan 0 0 0 0 0 0 0 0 0 0 0 0 0 0 0 0 0 0 0 0 0 0 0 0 0 0 0 0 0
nan nan nan nan nan nan nan nan nan nan nan nan nan nan nan nan nan nan nan nan nan nan nan nan nan nan nan nan nan nan nan nan nan nan nan nan nan nan nan nan nan nan nan nan nan nan nan nan nan nan nan nan nan nan nan nan nan 0 0 0 0 0 0 0 0 0 0 0 0 0 0 0 0 0 0 0 0 0 0 0 0 0 0 0 0 0
nan nan nan nan nan nan nan nan nan nan nan nan nan nan nan nan nan nan nan nan nan nan nan nan nan nan nan nan nan nan nan nan nan nan nan nan nan nan nan nan nan nan nan nan nan nan nan nan nan nan nan nan nan nan nan 0 0 0 0 0 0 0 0 0 0 0 0 0 0 0 0 0 0 0 0 0 0 0 0 0 0 0 0 0 0 0
nan nan nan nan nan nan nan nan nan nan nan nan nan nan nan nan nan nan nan nan nan nan nan nan nan nan nan nan nan nan nan nan nan nan nan nan nan nan nan nan nan nan nan nan nan nan nan nan nan nan nan nan nan nan nan 0 0 0 0 0 0 0 0 0 0 0 0 0 0 0 0 0 0 0 0 0 0 0 0 0 0 0 0 0 0 0
nan nan nan nan nan nan nan nan nan nan nan nan nan nan nan nan nan nan nan nan nan nan nan nan nan nan nan nan nan nan nan nan nan nan nan nan nan nan nan nan nan nan nan nan nan nan nan nan nan nan nan nan nan nan nan 0 0 0 0 0 0 0 0 0 0 0 0 0 0 0 0 0 0 0 0 0 0 0 0 0 0 0 0 0 0 0
nan nan nan nan nan nan nan 0 0 0 nan nan nan nan nan nan nan nan nan nan nan nan nan nan nan -8 nan nan nan nan nan nan nan nan nan nan nan nan nan nan nan nan nan nan nan nan nan nan nan nan nan nan nan nan nan nan nan 0 0 0 0 0 0 0 0 0 0 0 0 0 0 0 0 0 0 0 0 0 0 0 0 0 0 0 0 0
-5 nan 0 0 0 0 0 0 0 0 0 -6 nan nan nan nan nan nan nan nan nan nan nan -7 -7 nan nan nan nan nan nan nan nan nan nan nan nan nan nan nan nan nan nan nan nan nan nan nan nan nan nan nan nan nan nan nan nan 0 0 0 0 0 0 0 0 0 0 0 0 0 0 0 0 0 0 0 0 0 0 0 0 0 0 0 0 0
-1 -1 -3 nan nan nan nan nan nan nan nan 0 0 0 -19 nan nan nan nan nan nan nan nan nan nan nan nan nan nan nan nan nan nan nan nan nan nan nan nan nan nan nan nan nan nan nan nan nan nan nan nan nan nan nan nan nan nan nan nan nan nan nan nan nan nan nan 0 0 0 0 0 0 0 0 0 0 0 0 0 0 0 0 0 0 0 -17
-18 -13 nan nan nan nan nan nan nan nan nan nan 0 0 nan nan nan nan nan nan nan nan nan -4 -4 -3 nan nan nan nan nan nan nan nan nan nan nan nan nan nan nan nan nan nan nan nan nan nan nan nan nan nan nan nan nan nan nan nan nan nan nan nan nan nan nan nan nan 0 0 0 0 0 0 0 0 0 0 0 0 0 0 0 0 -0 -0 nan
nan nan nan nan nan nan nan nan nan nan nan nan 0 0 nan nan nan nan nan nan nan nan nan -3 -3 -5 nan nan nan nan nan nan nan nan nan nan nan nan nan nan nan nan nan nan nan nan nan nan nan nan nan nan nan nan nan nan nan nan nan nan nan nan nan nan nan nan nan 0 0 0 0 0 0 0 0 0 0 0 0 0 0 0 -2 nan nan nan
nan nan nan nan nan nan nan nan nan nan nan nan nan nan nan nan nan nan nan nan nan nan nan nan nan nan nan -4 -2 -2 nan nan nan nan nan nan nan nan nan nan nan nan nan nan nan nan nan nan nan nan nan nan nan nan nan nan nan nan nan nan nan nan nan nan nan nan nan 0 0 0 0 0 0 0 0 0 0 0 0 0 0 0 nan nan nan nan
nan nan nan nan nan nan nan nan nan nan nan nan nan nan nan nan nan nan nan nan nan nan nan nan nan nan nan -8 nan nan -1 nan nan nan nan nan nan nan nan nan nan nan nan nan nan nan nan nan nan nan nan nan nan nan nan nan nan nan nan nan nan nan nan nan nan nan nan 0 0 0 0 0 0 0 0 0 0 0 0 0 0 0 -6 nan nan nan
nan nan nan nan nan nan nan nan nan nan nan nan nan nan nan nan nan nan nan nan nan nan nan nan nan nan nan nan -13 -13 nan nan -12 -12 -21 nan nan nan nan nan nan nan nan nan nan nan nan nan nan nan nan nan nan nan nan nan nan nan nan nan nan nan nan nan nan nan nan nan nan nan 0 0 0 0 0 0 0 0 0 0 0 0 0 nan nan nan
nan nan nan nan nan nan nan nan nan nan nan nan nan nan nan nan nan nan nan nan nan nan nan nan nan nan nan nan -11 -11 nan nan -4 -4 -11 nan nan nan nan nan nan nan nan nan nan nan nan nan nan nan nan nan nan nan nan nan nan nan nan nan nan nan nan nan nan nan nan nan nan nan nan nan nan nan nan 0 0 0 0 0 0 0 0 -2 -2 -8
nan nan nan nan nan nan nan nan nan nan nan nan nan nan nan nan nan nan nan nan nan nan nan nan nan nan nan nan nan nan -4 nan nan nan -6 nan nan nan nan nan nan nan nan nan nan nan nan nan nan nan nan nan nan nan nan nan nan nan nan nan nan nan nan nan nan nan nan nan nan nan nan nan nan nan nan nan 0 0 0 0 0 0 0 0 0 0
nan nan nan nan nan nan nan nan nan nan nan nan nan nan nan nan nan nan nan nan nan nan nan nan nan nan nan nan nan nan nan nan nan nan nan nan nan nan nan nan nan nan nan nan nan nan nan nan nan nan -0 nan nan nan nan nan nan nan nan nan nan nan nan nan nan nan nan nan nan nan nan nan nan nan nan nan 0 0 0 0 0 0 0 0 0 0
nan nan nan nan nan nan nan nan nan nan nan nan nan nan nan nan nan nan nan nan nan nan nan nan nan nan nan nan nan nan nan nan nan nan nan nan nan nan nan nan nan nan nan nan nan nan nan nan nan nan nan nan nan nan nan nan nan nan nan nan nan nan nan nan nan nan nan nan nan nan nan nan nan nan nan -0 -0 -0 0 0 0 0 0 0 0 0
nan nan nan nan nan nan nan nan nan nan nan nan nan nan nan nan nan nan nan nan nan nan nan nan nan nan nan nan nan nan nan nan nan nan nan nan nan nan nan nan nan nan nan nan nan nan nan nan nan nan nan nan nan nan nan nan nan nan nan nan nan nan nan nan nan nan nan nan nan nan nan nan nan nan nan nan nan nan nan nan nan nan 0 0 0 0
nan nan nan nan nan nan nan nan nan nan nan nan nan nan nan nan nan nan nan nan nan nan nan nan nan nan nan nan nan nan nan nan nan nan nan nan nan nan nan nan nan nan nan nan nan nan nan nan nan nan nan nan nan nan nan nan nan nan nan nan nan nan nan nan nan nan nan nan nan nan nan nan nan nan nan nan nan nan nan nan nan nan nan nan nan nan
nan nan nan nan nan nan nan nan nan nan nan nan nan nan nan nan nan nan nan nan nan nan nan nan nan nan nan nan nan nan nan nan nan nan nan nan nan nan nan nan nan nan nan nan nan nan nan nan nan nan nan nan nan nan nan nan nan nan -2 nan nan nan nan nan nan nan nan nan nan nan nan nan nan nan nan nan nan nan nan nan nan nan nan nan nan nan
nan nan nan nan nan nan nan nan nan nan nan nan nan nan nan nan nan nan nan nan nan nan nan nan nan nan nan nan nan nan nan nan nan nan nan nan nan nan nan nan nan nan nan nan nan nan nan nan nan -4 -6 nan nan nan nan nan nan 0 0 nan nan nan nan nan nan nan nan nan nan nan nan nan nan nan nan nan nan nan nan nan nan nan nan nan nan nan
nan nan nan nan nan nan nan nan nan nan nan nan nan nan nan nan nan nan nan nan nan nan nan nan nan nan nan nan nan nan nan nan nan nan nan nan nan nan nan nan nan nan nan nan nan nan -7 -4 -4 -4 nan nan nan nan nan nan nan -2 0 nan nan nan nan nan nan nan nan nan nan nan nan nan nan nan nan nan nan nan nan nan nan nan nan nan nan nan
nan nan nan nan nan nan nan nan nan nan nan nan nan nan nan nan nan nan nan nan nan nan nan nan nan nan nan nan nan nan nan nan nan nan nan nan nan nan nan nan nan nan nan nan nan nan nan -3 -3 nan nan nan nan nan nan nan nan nan nan -3 -3 -2 nan nan nan nan nan nan nan nan nan nan nan nan nan nan nan nan nan nan nan nan -4 nan nan nan
nan nan nan nan nan nan nan nan nan nan nan nan nan nan nan nan nan nan nan nan nan nan nan nan nan nan nan nan nan nan nan nan nan nan nan nan nan nan nan nan nan nan nan nan nan nan nan nan nan nan nan nan nan nan nan nan nan nan nan -4 -4 nan nan nan nan nan nan nan nan nan nan nan nan nan nan nan nan nan nan nan nan nan nan nan nan nan
nan nan nan nan nan nan -16 -14 -9 -9 nan nan nan nan nan nan nan nan nan nan nan nan nan nan nan nan nan nan nan nan nan nan nan nan nan nan -7 -7 nan nan nan nan nan nan nan nan nan nan nan nan nan nan nan nan nan nan nan nan nan -2 -2 -3 nan nan nan nan nan nan nan nan nan nan nan nan nan nan nan nan nan nan nan nan nan nan nan nan
nan nan nan nan nan nan -6 -9 -14 -14 nan nan nan nan nan nan nan nan nan nan nan nan nan nan nan nan nan nan nan nan nan nan nan nan nan nan nan nan nan nan nan nan nan nan nan nan nan nan nan nan nan nan nan nan nan nan nan nan nan -2 -2 nan nan nan nan nan nan nan nan nan nan nan nan nan nan nan nan nan nan nan nan nan nan nan nan nan
nan nan nan nan nan nan -18 -15 nan nan nan nan nan nan nan nan nan nan nan nan nan nan nan nan nan nan nan nan nan nan nan nan nan nan nan nan nan nan nan nan nan nan nan nan nan nan nan nan nan nan nan nan nan nan nan nan nan nan nan nan nan nan nan nan nan nan nan nan nan nan nan nan nan nan nan nan nan nan nan nan nan nan nan nan nan nan
nan nan nan nan nan nan nan nan nan nan nan nan nan nan nan nan nan nan nan nan nan nan nan nan nan nan nan nan nan nan nan nan nan nan nan nan nan nan nan nan nan nan nan nan nan nan nan nan nan nan nan nan nan nan nan nan nan nan nan nan nan nan nan nan nan nan nan nan nan nan nan nan nan nan nan nan nan nan nan nan nan nan nan nan nan nan
nan nan nan nan nan nan nan nan nan nan nan nan nan nan nan nan 0 0 nan nan nan nan nan nan nan nan nan nan nan nan nan nan nan nan nan nan nan nan nan nan nan nan nan nan nan nan nan nan nan nan nan nan nan nan nan nan nan nan nan nan nan nan nan nan nan nan nan nan nan nan nan nan nan nan nan nan nan nan nan nan nan nan nan nan nan nan
nan nan nan nan nan nan nan nan nan nan nan nan nan nan nan nan nan nan nan nan nan nan nan nan nan nan nan nan nan nan nan nan nan nan nan nan nan nan nan nan nan nan nan nan nan nan nan nan nan nan -5 nan nan nan nan nan nan nan nan nan nan nan nan nan nan nan nan nan nan nan nan nan nan nan nan nan nan nan nan nan nan nan nan nan nan nan
nan nan nan nan nan nan nan nan nan nan nan nan nan nan nan nan nan nan nan nan nan nan nan nan nan nan nan nan nan nan nan nan nan nan nan nan nan nan nan nan nan nan nan nan nan nan nan nan nan nan nan -0 nan nan nan nan nan nan nan nan nan nan nan nan nan nan nan nan nan nan nan nan nan nan nan nan nan nan nan nan nan nan nan nan nan nan
Wind_Speed
1 1 2 3 3 3 2 3 3 3 2 2 1 1 1 3 3 3 4 3 2 2 2 2 2 1 1 4 5 6 7 7 8 9 9 10 11 12 12 12 12 12 12 12 11 11 11 11 11 11 11 11 12 12 12 12 12 12 13 13 13 13 13 12 12 12 12 12 12 11 11 11 11 11 10 10 10 10 11 11 11 11 11 12 12 12
1 1 1 2 3 3 2 3 3 3 3 3 3 2 2 2 3 2 3 3 3 3 2 2 2 1 1 3 5 6 7 8 9 10 11 11 12 12 11 11 11 11 10 10 10 10 10 11 11 11 11 11 11 12 12 12 12 12 12 12 12 12 12 12 12 12 11 11 11 11 11 11 11 11 11 11 11 11 11 12 12 12 12 12 12 12
1 1 1 1 2 2 2 2 2 2 2 3 3 3 3 2 2 2 2 2 3 3 2 2 2 2 2 3 5 7 9 9 10 11 11 12 11 11 10 10 10 9 9 9 9 10 10 11 11 11 11 12 12 11 11 11 11 11 11 11 11 11 11 11 11 11 11 11 11 11 11 11 11 11 11 11 11 11 12 12 12 12 12 12 12 12
1 0 1 1 1 1 1 1 2 2 2 2 2 2 3 2 2 1 1 1 2 2 2 2 2 2 2 3 5 8 10 11 12 12 11 11 10 10 9 9 8 8 8 9 9 10 11 11 12 12 12 12 12 12 11 11 11 11 11 11 10 10 10 10 11 11 11 11 11 11 11 11 11 11 11 12 12 12 12 12 12 12 12 12 12 12
1 1 1 1 1 2 2 2 2 2 3 3 2 2 2 2 1 1 1 1 1 1 1 1 2 2 3 3 6 9 12 12 12 11 10 9 9 8 8 7 7 8 8 9 10 11 11 12 12 12 12 12 12 12 12 11 11 11 10 10 10 10 10 10 10 10 10 10 10 10 10 11 11 11 11 11 12 12 12 12 12 12 12 12 12 12
1 1 1 1 1 1 2 2 2 2 2 2 2 2 2 1 1 1 1 1 1 1 1 2 2 3 4 4 7 9 11 11 10 8 7 7 6 6 6 7 7 8 9 10 10 11 12 12 12 12 12 12 12 12 12 11 11 10 10 10 9 9 9 9 9 10 10 10 10 10 10 11 11 11 11 11 11 12 12 12 12 12 12 12 12 12
1 1 2 1 1 1 1 1 1 2 2 2 2 2 2 1 1 1 1 1 1 2 2 2 3 3 4 5 6 8 8 7 5 4 4 4 5 5 6 7 8 9 9 10 11 11 11 11 11 11 11 11 11 11 11 10 10 9 9 9 8 8 9 9 9 10 10 11 11 11 11 11 11 11 11 11 11 12 12 12 12 12 12 12 12 12
1 1 1 1 1 1 1 1 1 1 1 1 2 2 2 1 1 1 2 2 2 2 2 2 2 2 2 3 4 4 4 2 1 1 2 3 4 5 6 7 8 9 9 10 10 11 11 11 11 11 10 10 10 10 10 10 9 9 9 9 9 9 9 10 10 11 11 11 12 12 12 12 12 12 12 12 12 12 12 12 12 12 12 12 12 13
1 1 1 1 1 1 1 1 1 1 1 1 1 1 1 1 1 1 2 2 2 2 2 2 2 2 2 2 2 2 1 0 0 1 1 1 2 3 5 6 7 8 9 9 10 10 10 10 10 10 10 10 11 11 10 10 10 10 10 10 10 10 10 10 11 11 12 12 12 12 12 12 12 12 12 12 12 12 12 12 12 12 12 12 13 13
2 1 1 1 1 0 1 1 1 0 0 1 1 1 1 2 1 1 1 1 1 1 1 1 1 2 2 2 1 1 1 1 1 2 3 3 3 4 5 6 6 7 8 8 9 9 9 10 10 10 11 11 11 11 11 11 11 10 10 10 10 10 11 11 11 12 12 12 12 13 13 13 13 12 12 12 12 12 11 12 12 12 12 12 13 13
1 1 1 0 1 1 0 0 0 0 1 1 1 1 1 2 2 1 1 1 1 0 1 0 1 1 1 1 1 2 2 2 2 3 4 5 5 5 6 6 6 7 7 8 8 9 9 10 10 11 11 11 11 11 11 11 10 10 10 11 11 11 11 11 12 12 12 12 13 13 13 13 13 12 12 12 12 12 12 12 12 12 12 13 13 13
1 1 0 0 0 0 0 0 1 1 1 1 1 1 1 1 2 2 2 2 1 1 1 1 1 1 1 1 1 2 2 2 2 2 3 4 4 4 5 5 5 6 6 7 7 8 9 10 10 10 10 10 10 10 10 10 10 10 10 11 11 11 11 11 12 12 12 12 12 13 13 12 12 12 12 12 12 12 12 12 12 12 13 13 13 14
0 0 0 0 0 0 0 0 1 1 1 1 1 1 2 1 1 2 2 1 1 0 1 1 1 1 1 1 1 1 2 1 2 2 2 2 3 3 3 3 3 3 3 4 4 6 7 9 9 10 10 10 10 10 10 10 10 10 10 10 10 11 11 11 11 12 12 12 12 12 12 12 12 12 12 12 12 12 12 12 13 13 13 14 14 14
1 0 0 0 0 0 0 0 1 1 1 1 1 1 0 0 1 1 2 1 0 0 1 1 1 2 2 1 1 1 1 1 2 2 2 2 2 1 1 2 2 2 2 2 3 4 6 6 6 7 9 9 10 10 10 10 10 10 10 10 10 10 10 11 11 11 12 12 12 12 12 12 12 12 12 12 12 13 13 13 13 13 14 14 14 15
1 1 1 1 1 1 1 0 1 1 0 0 1 1 1 1 1 1 2 1 0 1 1 2 2 2 2 1 1 1 1 2 2 2 2 2 2 1 1 1 2 2 1 2 3 4 6 5 4 4 6 7 8 9 10 10 10 10 10 10 10 10 10 11 11 11 11 12 12 12 12 12 12 12 13 13 13 13 13 13 13 13 14 14 15 15
0 0 0 1 1 1 1 1 1 1 1 1 1 1 1 1 1 1 2 1 1 1 2 2 2 2 3 2 1 1 1 2 2 1 2 2 2 1 1 0 1 2 2 2 3 3 3 3 3 4 5 7 9 10 11 10 10 10 10 10 10 10 11 11 11 11 12 12 12 12 12 12 13 13 13 13 13 13 13 13 13 14 14 15 15 15
0 0 0 1 1 1 1 1 1 0 1 1 1 1 1 1 1 1 1 1 1 2 2 2 1 1 2 3 2 2 2 2 2 1 1 2 2 1 1 1 2 3 3 3 3 3 3 3 4 4 5 7 10 11 11 11 10 10 10 11 11 11 11 11 11 12 12 12 12 12 12 13 13 13 13 13 13 13 13 14 14 14 15 15 15 16
1 1 0 0 1 1 2 1 1 1 1 1 1 1 1 1 1 1 1 2 2 2 2 1 1 1 1 2 2 2 1 2 1 1 2 3 3 2 1 1 2 3 3 3 3 3 3 3 3 4 5 9 10 11 11 11 11 11 11 11 11 11 12 12 12 12 12 12 12 12 13 13 13 13 13 13 13 14 14 14 15 15 15 15 15 16
1 0 0 0 1 1 2 1 1 1 1 0 1 1 1 2 2 2 2 2 2 2 2 1 1 1 1 2 3 2 0 1 1 2 3 4 3 2 0 1 2 2 3 3 3 3 3 3 5 6 8 10 11 12 12 12 12 12 12 12 12 12 12 12 12 12 12 13 13 13 13 13 13 13 13 13 14 14 14 14 15 15 15 15 16 16
0 1 1 1 1 0 1 2 1 1 1 1 1 2 1 1 2 2 1 1 1 2 2 2 1 1 1 2 3 2 0 2 1 1 2 3 3 2 1 1 1 2 3 3 3 3 3 3 4 6 8 10 11 12 13 13 13 13 13 13 13 13 12 12 12 13 12 13 12 12 13 13 13 13 13 13 14 14 14 14 15 15 15 16 16 16
0 1 2 2 1 1 0 1 2 2 2 2 2 2 1 1 1 1 1 1 1 1 2 1 1 2 2 2 2 2 1 2 1 1 2 2 3 2 1 1 1 2 2 3 3 3 2 3 3 4 6 9 11 13 14 14 14 14 13 13 13 13 12 12 12 12 12 12 12 12 12 12 13 13 13 13 13 14 14 14 15 15 16 16 17 17
1 1 2 2 2 1 1 2 2 3 3 3 3 2 1 1 0 0 1 1 1 1 1 2 2 2 2 2 2 2 1 2 1 1 1 2 3 3 1 0 1 1 2 3 3 2 2 2 3 4 6 10 13 14 15 14 14 14 13 13 12 12 12 12 12 12 12 11 11 11 12 12 12 13 13 13 13 14 14 15 15 16 16 17 17 17
1 1 2 2 2 2 2 2 2 2 3 3 3 2 3 2 2 2 2 2 2 2 3 2 2 1 1 1 2 2 0 1 2 2 1 1 3 3 1 0 0 1 2 3 3 3 2 2 3 4 7 11 13 14 15 14 13 13 12 12 12 11 11 11 11 10 10 10 11 11 11 12 12 13 13 13 14 14 15 15 16 16 16 17 17 17
1 1 1 2 2 2 2 2 1 1 1 1 1 1 2 2 2 2 2 2 2 2 1 0 1 1 1 2 2 2 1 1 2 2 1 2 3 3 2 1 1 2 3 3 2 2 2 3 3 4 5 10 12 14 14 13 12 12 11 11 10 10 10 9 9 9 9 10 10 11 11 12 13 13 14 14 15 15 15 15 16 16 16 16 17 17
1 1 1 2 2 2 2 2 2 1 1 1 1 1 1 1 1 2 2 2 1 1 1 1 1 2 2 1 2 2 1 1 2 2 1 1 2 3 2 1 1 2 3 3 2 2 2 4 4 4 4 7 10 12 12 11 11 10 9 9 8 8 8 8 8 9 9 10 11 11 12 13 13 14 14 14 15 15 15 15 15 16 16 16 16 17
2 1 1 1 2 4 5 7 7 7 4 1 1 2 1 1 1 1 1 1 1 0 1 2 3 3 3 2 2 2 2 1 1 2 2 1 2 3 2 1 1 1 3 3 2 2 3 4 5 4 4 4 6 8 9 9 8 7 7 7 7 7 8 8 9 10 11 12 12 13 13 14 14 14 14 14 15 15 15 15 15 15 16 16 16 16
5 5 6 7 8 9 10 11 11 11 11 8 5 3 2 2 1 1 1 1 1 1 2 3 3 3 3 2 2 2 2 1 1 2 2 1 1 2 2 1 1 1 2 3 3 3 5 5 5 4 3 3 3 5 7 7 7 7 6 7 8 9 10 11 12 12 13 13 14 14 14 14 14 14 14 14 14 15 15 15 15 15 15 15 14 12
6 7 7 8 8 9 9 9 9 10 11 11 11 8 3 1 1 2 3 2 1 1 2 3 4 4 3 3 3 2 2 2 2 2 2 1 1 2 2 1 1 1 2 3 4 4 5 5 4 4 3 3 3 3 5 6 7 8 9 10 11 11 12 13 13 14 14 14 14 14 14 14 14 14 14 15 15 15 15 15 15 15 14 12 9 6
6 6 6 6 7 7 7 7 7 8 9 10 10 9 5 1 1 2 3 2 1 2 3 4 4 4 3 3 3 3 3 2 1 1 2 1 0 2 2 1 1 1 2 3 3 3 3 3 2 2 2 3 3 3 3 5 6 7 9 11 12 13 13 14 14 14 14 14 14 14 15 15 15 15 15 15 15 15 15 15 15 13 11 8 6 5
4 5 5 5 5 5 5 4 5 6 8 9 9 8 5 1 1 2 2 1 2 2 3 4 4 3 3 3 3 3 2 2 1 1 3 1 1 2 1 1 1 1 1 3 3 3 3 2 2 2 2 3 3 3 3 4 5 5 6 8 10 11 13 14 14 14 14 15 15 15 15 15 15 15 15 15 15 15 15 15 14 11 7 5 4 4
3 3 3 3 3 3 3 3 3 5 6 7 7 6 4 1 2 2 2 2 2 2 3 3 3 3 3 3 3 2 2 2 1 2 2 1 1 2 1 1 1 1 0 1 2 3 3 2 2 2 2 2 3 3 3 4 4 4 4 5 6 7 11 12 13 13 14 14 15 15 15 16 16 16 16 16 16 15 15 15 13 10 6 5 4 4
2 2 2 2 3 3 3 3 3 3 4 5 5 4 4 2 2 2 2 2 3 3 3 3 3 3 3 3 3 3 2 1 2 3 2 1 1 2 1 1 1 1 1 0 1 2 3 3 3 2 2 3 3 3 4 4 4 3 4 4 4 5 9 10 11 11 11 13 14 15 15 16 16 16 16 16 16 16 16 16 14 11 6 5 4 4
1 2 2 2 3 3 2 2 2 3 3 3 3 3 3 3 2 2 2 2 3 3 3 3 3 3 3 3 3 3 3 2 2 3 3 2 1 1 1 1 2 2 1 1 1 2 3 3 4 4 3 3 3 3 3 4 4 4 4 4 4 4 7 7 8 8 9 10 11 12 14 15 15 16 16 16 16 16 16 16 15 12 9 6 5 5
1 2 2 2 3 3 3 3 3 3 3 3 3 3 3 2 2 2 2 2 2 2 3 2 2 2 2 3 3 3 3 2 3 3 3 1 1 1 2 2 2 2 2 2 2 2 3 4 4 5 4 4 3 3 3 3 4 4 3 3 3 4 5 5 5 5 7 7 7 7 9 10 12 13 14 14 15 15 15 15 15 14 13 9 7 6
2 2 2 2 3 3 3 3 3 3 3 3 3 3 2 2 2 1 1 1 2 2 2 2 2 2 2 2 2 3 3 2 3 4 4 2 1 2 2 2 2 2 2 2 2 3 3 4 5 6 6 5 4 3 2 3 3 3 3 3 4 4 4 4 4 5 6 6 5 5 6 6 7 8 10 11 13 14 15 15 15 15 15 13 11 8
2 2 2 2 2 3 3 3 3 3 3 3 2 2 2 2 2 1 1 1 1 1 1 1 1 2 2 2 2 3 3 2 3 4 4 2 2 2 2 3 3 2 3 3 3 3 3 4 6 7 7 6 5 4 3 2 2 2 2 3 4 4 4 5 4 5 5 5 5 5 5 5 5 6 7 10 13 14 15 15 16 16 16 16 15 13
2 2 2 2 2 2 3 2 2 2 2 2 2 2 2 2 2 1 1 1 1 1 1 1 2 2 2 2 3 3 3 3 3 3 4 3 2 2 3 3 3 3 3 3 3 4 4 5 6 6 6 6 5 4 4 3 2 3 3 3 4 4 5 5 5 5 4 5 5 5 5 5 5 6 7 10 12 13 14 15 15 15 16 16 16 16
2 2 2 2 1 1 2 2 2 2 2 2 2 3 2 2 2 1 1 1 1 1 1 2 2 3 4 4 4 4 4 3 4 4 4 3 3 3 3 3 4 4 3 3 3 4 4 5 6 6 5 5 6 6 6 5 4 4 4 4 4 5 5 5 5 5 4 5 6 6 6 6 5 5 5 7 7 7 7 8 9 11 13 13 14 16
1 2 2 2 2 2 2 2 3 3 3 3 3 3 2 1 1 1 1 1 1 1 2 2 3 3 4 5 5 5 5 5 4 5 4 4 3 3 4 4 4 4 3 3 3 3 4 5 5 5 5 5 6 6 6 5 5 5 5 5 5 4 4 4 4 4 4 4 5 6 6 5 5 4 4 4 4 4 4 5 6 7 7 7 8 11
1 2 2 3 2 2 3 3 3 3 3 3 3 3 2 1 1 1 1 1 2 2 2 3 3 3 4 4 5 5 5 4 4 4 4 4 4 3 4 4 4 4 3 3 3 4 4 5 6 6 6 6 6 6 6 6 6 7 8 6 5 4 3 3 3 3 4 4 5 5 5 4 4 4 4 4 4 4 4 4 4 5 5 4 4 5
2 2 3 3 3 3 3 4 3 3 3 2 2 2 2 2 2 2 2 2 3 3 3 3 3 3 3 3 4 4 5 5 5 5 4 4 5 4 4 4 4 3 3 4 4 4 5 6 6 7 7 6 7 8 8 7 8 9 10 8 7 6 6 5 5 4 4 4 4 4 4 5 5 5 5 5 5 4 4 4 5 5 5 4 4 4
3 3 3 3 3 3 3 3 3 3 3 2 1 1 2 2 2 2 2 2 2 2 2 2 2 3 3 3 3 4 4 5 5 5 5 6 6 5 5 4 4 3 3 4 5 5 5 6 6 7 7 6 6 7 7 8 8 8 8 8 8 9 9 7 5 3 3 3 3 4 5 5 4 4 5 5 5 5 5 5 6 7 6 5 4 4
3 3 3 3 3 3 3 3 3 3 2 1 1 2 2 2 2 2 3 2 2 3 3 3 3 3 3 4 3 3 3 4 5 5 5 5 6 6 5 5 5 4 4 4 4 5 6 6 7 7 6 6 6 7 8 8 8 8 8 8 8 7 6 5 4 3 3 4 4 4 4 5 5 5 6 6 5 5 5 6 8 9 8 6 5 5
3 3 3 3 3 3 2 2 2 2 1 2 2 2 2 2 3 3 3 2 3 3 3 2 2 3 3 4 4 3 3 3 3 4 5 6 6 6 5 5 5 5 4 4 4 4 5 6 6 6 6 6 6 7 8 8 8 8 7 8 8 7 7 6 6 6 6 6 5 5 4 5 6 6 6 6 6 5 5 5 6 6 7 6 6 6
2 2 2 2 2 2 2 2 2 2 2 2 2 3 3 3 3 2 2 2 3 3 3 2 3 3 3 3 3 3 3 2 2 3 3 5 6 7 6 5 5 5 5 5 5 5 5 5 6 6 5 6 7 8 8 8 8 9 8 8 8 8 8 7 7 7 7 7 7 6 5 5 5 6 6 7 7 7 6 6 6 6 6 6 6 6
2 2 2 2 2 2 3 3 2 2 2 2 3 3 3 2 2 2 2 3 3 3 3 3 3 3 4 4 4 4 3 3 3 2 2 3 4 4 5 5 5 5 5 5 6 6 6 6 6 6 6 6 7 8 8 8 8 8 8 8 8 8 8 8 7 7 7 7 7 7 5 4 5 6 7 8 8 8 7 7 7 7 6 6 6 6
2 2 2 2 2 2 2 2 2 2 2 3 3 3 3 2 2 2 3 3 3 3 3 3 3 3 4 4 4 4 4 4 3 3 2 3 3 3 4 4 5 5 5 5 6 6 7 7 7 6 6 7 8 8 8 8 8 8 8 8 7 7 7 7 7 7 7 7 7 7 5 5 5 6 8 8 8 8 7 7 7 7 6 6 6 6
3 2 2 2 2 2 2 2 2 2 2 3 3 3 3 3 3 3 3 3 3 3 3 3 3 4 4 4 4 4 5 5 4 4 3 3 3 3 3 3 4 4 5 6 7 7 8 8 8 8 8 8 8 9 9 8 8 8 8 7 7 7 8 8 7 6 7 7 6 6 5 5 6 7 8 8 8 8 8 8 7 7 7 6 6 7
2 2 2 2 2 2 2 2 2 3 3 3 3 3 2 3 4 5 4 3 3 3 3 4 4 4 4 4 4 4 5 5 5 4 4 3 3 3 3 3 3 3 4 5 6 6 7 8 9 10 10 10 9 10 10 9 8 8 7 7 7 7 8 8 7 7 7 7 6 6 5 5 6 7 7 8 9 10 10 9 8 8 7 7 7 7
2 2 2 2 2 2 3 3 3 3 3 4 4 3 2 3 3 3 3 3 3 3 3 4 4 5 5 5 5 5 5 5 4 4 4 3 3 3 2 2 2 3 3 3 4 4 4 5 7 9 12 12 12 11 10 9 8 8 7 7 7 7 7 7 7 7 7 7 7 6 6 6 6 6 6 8 9 11 11 10 9 8 7 6 6 6
3 3 2 2 2 3 3 3 3 3 4 4 4 4 4 3 3 3 3 3 3 4 4 4 4 5 5 5 5 5 5 5 5 5 4 3 3 3 3 3 3 3 3 3 3 3 3 3 4 5 8 12 14 13 9 8 7 7 7 7 6 6 6 6 6 6 7 7 6 6 6 6 6 6 6 7 8 10 11 10 9 8 7 5 5 5
Wind_Direction
80 124 147 150 148 146 156 155 151 145 144 143 156 157 114 122 133 161 190 185 159 114 99 95 96 103 234 255 259 263 266 267 268 268 268 268 267 267 268 269 270 272 273 275 276 278 279 280 280 279 278 277 276 275 273 272 271 270 270 271 271 273 274 275 277 278 280 282 283 285 286 289 290 292 293 293 292 292 290 290 289 289 289 289 289 289
55 102 143 158 159 160 163 167 166 163 160 160 164 163 144 116 124 147 176 168 154 139 130 124 127 145 202 245 253 257 259 260 261 261 262 263 265 266 268 270 273 275 278 282 285 288 290 290 289 287 285 283 280 278 275 273 272 271 270 271 272 273 275 277 278 280 281 283 284 285 287 288 289 290 289 289 288 287 285 284 283 283 283 283 283 283
40 100 150 167 166 163 150 162 163 155 146 148 153 155 147 135 134 143 163 164 161 155 153 158 171 192 212 238 248 251 252 254 256 258 260 263 265 268 270 273 276 281 286 290 295 297 299 298 295 293 290 287 284 282 279 277 275 274 273 273 273 274 274 275 276 277 278 279 280 281 282 282 283 283 282 281 280 279 278 278 278 278 278 279 279 280
21 85 128 126 102 83 72 99 102 97 96 105 117 130 136 143 148 151 152 150 153 158 162 174 193 212 224 238 245 248 249 251 253 257 260 264 267 271 274 278 283 289 296 300 302 303 302 300 297 294 291 288 286 283 281 279 277 275 274 273 273 272 272 273 274 274 274 275 275 275 275 275 275 275 275 275 274 275 275 275 276 277 278 279 279 279
22 43 67 59 55 52 49 64 75 81 80 85 95 108 120 134 140 137 121 121 133 164 194 209 221 228 233 238 244 247 248 251 254 258 263 268 273 278 283 288 294 300 304 306 305 304 302 298 295 292 288 285 283 281 279 277 276 274 273 272 272 273 272 274 276 277 277 278 277 276 275 274 274 274 274 274 274 274 275 276 277 278 279 279 279 279
35 39 44 44 51 57 57 65 81 90 90 92 98 104 111 115 120 124 135 153 189 211 224 227 228 230 233 236 242 246 249 252 257 263 271 279 287 293 298 301 304 306 307 306 305 303 300 295 291 288 285 282 280 279 278 276 275 275 274 275 277 280 282 284 285 286 286 286 284 283 281 279 278 278 277 277 277 277 277 278 279 279 279 279 279 279
52 45 46 47 51 60 63 75 98 111 116 116 116 116 116 118 130 159 191 203 210 220 231 230 228 227 230 238 243 247 251 256 266 284 301 309 314 315 313 311 309 308 308 306 304 301 297 293 290 288 286 284 284 284 283 282 283 284 285 288 290 292 292 292 292 291 290 290 289 287 285 284 282 281 280 279 279 278 278 279 279 279 279 279 279 279
75 62 53 55 63 69 72 82 110 129 133 133 132 133 135 145 161 182 199 206 212 220 231 232 225 220 224 240 248 252 253 262 303 359 354 348 340 330 323 318 314 311 308 305 303 301 299 297 296 296 296 296 296 297 297 297 299 301 302 302 302 301 297 295 293 291 290 289 288 286 285 283 282 281 279 278 278 277 277 277 278 278 278 278 278 278
84 79 64 60 74 97 109 114 130 146 147 143 141 142 148 159 171 184 194 201 204 207 216 224 225 226 235 251 263 269 271 272 54 44 21 17 354 337 330 325 319 314 309 307 306 306 306 307 308 308 308 307 307 307 308 308 309 310 308 306 303 300 296 293 290 288 287 286 285 284 282 281 280 279 277 276 276 275 275 275 276 276 277 277 278 278
71 75 71 45 33 65 123 135 141 149 137 141 138 143 149 160 172 188 209 210 203 191 202 214 224 236 259 278 294 313 335 345 352 1 16 9 357 347 341 337 330 321 315 314 313 314 315 315 314 313 311 310 309 309 310 310 309 308 305 302 298 295 291 288 286 285 284 283 282 281 280 279 278 277 276 275 274 274 274 274 274 274 275 276 277 277
57 60 71 43 359 353 61 119 129 123 100 113 123 144 172 177 182 194 234 245 254 307 341 283 236 236 257 293 326 354 12 1 357 360 8 2 357 353 349 345 339 332 327 324 322 321 320 317 315 313 311 310 309 308 308 307 305 303 299 295 292 289 286 284 282 281 280 279 278 278 277 276 275 275 274 274 273 273 272 272 272 273 274 274 275 276
50 42 55 68 325 340 31 99 118 120 112 116 131 225 233 204 187 188 216 236 250 292 317 297 276 254 245 317 348 360 12 11 3 356 356 357 360 1 358 351 345 340 336 331 327 323 319 316 314 311 310 310 308 307 306 304 301 297 293 289 286 284 282 280 279 278 277 276 275 275 274 274 274 273 273 273 272 272 272 272 272 272 273 274 274 275
39 13 305 275 282 307 84 109 114 127 142 162 191 222 237 212 170 173 198 209 215 256 284 298 302 304 320 14 18 10 11 7 360 356 356 354 358 4 6 355 346 340 338 333 325 316 313 311 309 308 307 306 305 304 303 301 297 293 289 285 282 280 278 277 276 275 274 273 273 273 273 273 273 273 272 272 272 272 272 272 273 273 274 275 275 276
359 346 11 358 339 308 240 167 173 187 196 194 201 206 204 77 91 124 159 145 121 318 290 333 322 314 324 4 23 28 40 23 13 7 1 344 340 353 14 343 324 316 323 318 305 296 294 298 301 301 300 300 300 299 297 295 293 290 287 284 281 278 277 276 275 274 274 273 273 274 274 274 274 273 272 272 272 273 273 274 274 275 276 276 276 276
354 7 12 349 319 300 294 272 235 237 258 334 359 10 42 49 63 87 121 119 28 336 359 14 352 327 323 343 354 16 60 58 42 19 355 327 314 316 68 329 305 293 287 284 280 279 283 287 285 284 286 288 289 289 290 290 290 289 287 284 282 280 279 278 277 276 276 276 276 276 276 276 275 275 274 274 274 275 276 276 277 277 277 277 277 277
336 31 14 302 291 293 316 339 336 331 350 354 359 18 58 57 59 75 101 106 53 17 35 30 10 341 322 329 344 18 56 66 63 40 355 313 300 281 119 325 293 285 273 267 267 271 276 275 270 268 273 282 287 290 293 293 292 291 289 286 285 283 282 281 280 280 279 278 278 278 278 277 277 277 277 277 278 278 279 279 279 279 278 278 277 277
5 31 68 283 289 297 314 330 331 322 323 348 11 33 57 62 68 78 93 93 66 50 52 60 47 350 317 322 335 1 44 65 65 42 344 305 292 269 140 181 265 274 273 266 264 265 270 272 272 272 272 281 288 294 297 297 296 294 292 290 288 287 285 284 282 281 280 280 279 279 278 279 279 279 279 280 280 281 281 280 280 279 279 279 278 278
15 27 48 320 298 298 304 315 321 320 339 6 19 30 42 39 48 65 80 89 83 76 66 78 102 145 281 303 303 312 39 65 49 1 324 301 291 278 166 189 237 260 268 266 264 261 261 264 266 271 276 289 294 298 300 300 299 296 295 292 290 288 286 284 282 281 280 280 279 278 278 279 279 280 280 281 280 280 280 279 279 278 279 279 279 279
349 334 116 237 269 285 305 310 312 319 359 29 52 47 34 16 24 39 54 78 99 111 116 112 137 189 195 251 268 279 71 77 45 343 312 298 291 285 258 215 238 254 263 263 262 260 258 261 268 275 283 293 298 300 300 300 298 296 294 291 289 287 285 283 281 280 279 279 278 278 278 278 278 279 279 279 278 278 278 278 278 278 279 279 279 279
332 283 226 206 204 308 332 305 281 241 195 165 121 92 66 30 25 32 36 55 86 109 118 129 172 220 219 246 265 278 82 79 53 334 295 287 284 281 271 227 237 251 262 260 258 256 256 263 274 284 290 294 296 298 298 296 295 293 290 288 286 284 283 281 280 279 278 277 277 277 277 277 277 277 277 277 277 277 278 279 279 279 279 279 279 279
94 275 239 197 160 122 340 270 248 221 184 147 114 92 83 60 37 17 359 58 74 82 91 132 205 219 210 238 259 268 126 96 79 315 289 286 282 277 267 226 224 245 261 263 262 259 261 267 272 278 284 290 293 294 294 293 291 289 287 285 283 281 280 279 278 277 276 276 276 277 277 277 277 276 277 278 278 279 280 281 281 281 281 280 280 279
143 224 238 208 188 179 208 234 228 207 170 139 121 112 132 133 145 249 226 168 156 162 183 210 218 217 200 228 251 259 137 128 141 190 283 289 285 280 274 240 215 243 258 264 267 270 270 270 270 273 278 287 290 291 291 290 289 287 284 282 280 278 277 276 275 275 275 275 276 276 277 277 278 279 280 281 282 283 283 283 282 282 282 281 280 279
145 188 223 216 214 216 231 242 234 202 168 153 152 161 170 168 178 190 190 179 180 188 198 214 226 242 245 259 273 279 229 165 149 141 149 261 271 272 271 262 256 262 261 264 271 279 286 279 273 275 281 286 288 289 290 288 286 284 281 279 277 276 275 274 274 274 274 275 277 278 280 281 282 283 284 284 284 284 284 283 282 281 281 280 279 279
140 181 215 218 222 226 240 251 251 232 189 187 185 177 168 167 169 171 170 167 165 165 172 183 339 334 311 284 285 287 264 178 142 130 143 236 256 264 270 273 284 279 270 265 268 282 296 289 279 275 278 283 285 286 287 286 284 282 279 277 276 275 274 275 276 278 279 281 283 284 285 286 286 286 285 285 284 283 282 281 280 279 279 279 279 278
152 185 217 223 228 235 251 265 277 276 184 205 210 202 154 146 134 124 112 111 112 109 87 3 316 300 291 278 282 287 277 191 147 142 152 233 261 270 271 258 263 274 277 277 281 293 300 294 287 281 276 279 282 284 287 287 286 284 280 278 278 279 281 284 287 289 290 290 290 290 289 288 287 286 284 283 282 281 279 279 279 279 279 279 279 279
107 105 38 359 349 347 349 343 344 344 333 288 223 203 183 165 141 118 102 123 140 165 289 286 283 281 283 283 281 279 273 241 171 162 162 215 268 280 279 264 251 270 285 290 296 301 298 293 289 284 277 276 284 289 292 294 294 292 290 291 293 296 298 298 299 299 297 295 294 292 290 288 286 285 283 282 281 281 280 280 280 280 280 280 280 280
39 30 24 17 12 7 3 358 349 340 331 321 307 277 213 179 176 207 228 213 205 221 270 280 284 285 287 284 276 267 259 243 207 185 169 190 261 278 280 285 301 306 299 299 297 293 289 286 285 283 283 286 299 304 301 306 310 313 313 312 311 310 308 305 303 301 298 296 294 292 290 288 286 285 283 283 282 282 281 281 281 281 281 281 280 280
30 26 23 18 15 11 5 357 346 336 328 320 312 306 297 228 199 237 248 235 230 246 267 274 279 282 283 280 277 272 265 254 228 193 160 141 243 263 273 293 317 324 310 303 296 288 281 277 278 282 290 302 308 309 309 318 324 326 325 320 316 312 309 306 303 300 298 295 293 291 289 288 286 285 285 284 284 283 283 283 283 282 282 281 280 280
29 28 27 23 18 13 6 356 344 333 325 317 312 310 318 317 202 232 247 238 236 247 258 264 268 274 280 283 286 283 274 264 238 181 133 113 229 261 271 300 313 318 320 310 304 296 285 277 277 283 295 303 305 306 309 322 327 327 324 319 314 310 306 303 301 298 296 293 292 290 289 288 287 287 286 286 285 285 284 284 284 283 282 280 279 278
13 15 16 13 11 7 360 346 333 325 322 318 314 314 323 306 192 209 224 211 214 231 248 257 262 268 276 285 288 286 275 264 239 162 122 121 225 266 276 298 298 302 331 323 318 311 306 298 289 283 285 302 308 312 313 320 321 319 317 313 309 304 300 298 296 294 292 291 290 289 289 289 288 288 288 287 286 286 285 285 284 283 280 277 274 272
350 351 343 340 341 341 337 324 317 316 317 317 316 316 318 281 206 201 204 194 197 210 228 242 250 255 261 272 279 281 280 266 233 184 138 149 230 257 257 282 279 269 229 339 327 317 313 309 298 289 292 308 312 311 309 306 303 300 296 297 295 293 291 290 290 289 289 289 289 289 289 289 289 289 288 287 287 286 285 285 284 283 278 274 270 267
327 327 319 314 315 318 318 316 314 314 313 313 312 309 304 285 243 213 202 195 191 195 208 223 234 240 243 251 259 265 276 265 210 190 178 196 241 256 241 267 275 270 230 301 305 300 303 300 297 296 301 304 302 298 293 287 282 278 275 276 277 279 281 282 284 286 286 287 288 288 288 288 288 288 288 287 287 286 285 285 284 283 279 274 269 266
313 312 308 311 314 315 314 315 314 312 309 306 303 301 300 291 268 241 217 202 194 190 194 210 226 237 244 249 253 258 265 266 234 218 215 220 248 267 269 277 286 288 286 271 254 255 268 282 291 296 297 292 286 282 279 272 266 262 260 261 263 268 273 275 278 280 281 284 285 286 286 287 287 287 287 286 286 285 285 284 283 282 279 274 268 266
323 319 320 322 323 320 317 316 315 312 307 304 302 302 303 297 283 263 233 213 203 196 188 199 216 235 251 258 261 262 264 268 278 284 287 275 272 283 290 286 287 290 294 282 268 262 264 275 286 294 297 292 285 276 271 264 260 255 248 245 250 258 265 266 269 272 274 276 278 280 281 282 283 283 284 283 283 283 283 282 281 280 278 274 270 267
339 332 328 328 326 323 320 318 316 312 308 302 300 300 301 298 292 279 255 233 218 203 190 194 201 214 231 253 268 273 274 282 310 323 328 324 308 296 292 283 283 287 289 284 281 280 279 281 287 292 296 297 293 284 267 256 253 253 249 241 243 248 256 257 259 264 268 269 269 268 269 270 272 274 276 276 277 278 278 279 279 279 278 277 276 275
338 328 321 320 317 315 312 310 309 309 305 297 291 288 289 285 283 280 272 271 263 243 213 212 213 212 212 225 247 264 272 279 303 316 317 311 300 290 284 280 281 283 282 280 280 281 284 287 289 290 292 293 295 293 281 260 251 254 259 249 246 247 251 249 250 253 260 263 264 263 260 259 259 260 263 268 271 273 276 278 279 280 281 280 280 280
325 314 306 302 299 299 297 297 296 294 292 291 290 286 279 268 266 267 269 284 309 322 314 299 286 273 261 244 242 248 257 265 275 282 283 277 268 264 271 276 276 274 270 274 278 282 285 288 290 289 287 286 289 293 296 290 282 274 269 260 255 254 254 250 246 246 250 255 258 259 257 255 253 253 256 264 268 273 277 279 281 281 282 281 281 280
317 306 296 288 282 279 279 280 276 272 271 278 283 281 268 253 252 260 274 287 306 315 308 303 297 292 290 285 275 263 257 257 258 259 257 251 246 248 258 268 270 267 260 262 270 277 282 285 287 288 286 283 283 286 292 296 295 290 282 272 263 257 253 249 244 241 242 250 256 260 260 258 255 254 257 262 266 271 275 276 277 278 279 279 279 279
301 289 281 272 260 248 247 255 258 259 259 264 270 272 265 250 245 256 264 273 276 274 267 268 272 275 278 278 277 274 269 259 250 243 239 235 234 239 250 259 264 264 259 256 259 264 268 272 275 279 283 286 287 289 291 292 293 293 294 288 277 261 246 242 239 238 241 248 258 265 267 264 261 260 260 261 262 263 265 266 267 267 269 272 276 278
269 264 263 259 248 236 234 245 252 258 262 266 276 287 303 326 331 322 314 300 285 273 260 254 256 261 264 266 269 270 271 262 249 237 226 222 224 231 240 249 257 261 261 256 253 253 256 261 265 269 273 280 286 290 291 290 291 295 300 299 294 283 268 261 255 251 249 249 256 262 268 266 263 260 257 255 254 253 253 257 260 261 260 260 266 275
251 253 256 258 255 247 241 249 254 260 267 270 284 309 331 337 329 318 311 297 287 281 274 270 271 275 278 272 265 261 259 255 248 239 229 224 225 230 236 242 248 254 257 256 253 251 251 257 262 266 268 273 278 282 283 284 288 292 295 294 294 293 294 288 280 269 262 257 255 257 265 270 269 266 263 262 257 252 249 252 258 262 263 255 251 256
248 248 248 253 256 256 256 263 267 268 267 270 292 314 322 320 310 299 289 283 278 274 271 271 275 280 284 276 265 257 251 249 246 242 239 234 232 233 237 240 243 246 249 254 254 253 251 255 259 263 266 270 274 277 279 280 282 284 285 287 291 295 295 289 282 272 272 272 269 267 269 275 277 276 276 273 268 263 257 255 259 263 266 260 251 246
243 242 244 249 253 258 262 268 272 274 277 295 305 304 302 292 282 276 277 275 273 272 273 272 274 278 283 283 279 268 255 248 244 243 241 237 235 234 236 237 238 239 242 249 254 255 254 254 256 259 262 266 269 272 276 279 280 279 278 281 287 293 295 294 294 292 287 285 283 281 280 281 281 281 280 280 278 273 268 265 265 265 265 264 259 252
240 246 250 254 255 253 246 248 255 265 279 286 286 283 278 270 268 268 272 271 272 275 277 277 278 280 281 283 284 280 267 255 247 244 243 240 235 231 232 232 233 233 232 239 248 255 259 257 257 257 259 262 265 268 271 275 277 278 276 277 277 277 277 287 295 299 295 291 288 285 281 284 286 287 286 285 283 280 275 269 265 263 261 259 256 254
244 253 259 261 265 267 260 257 261 269 275 276 274 272 270 266 267 268 270 272 275 278 278 281 283 284 282 283 285 286 282 273 262 255 253 251 248 244 236 231 229 229 229 233 239 247 255 259 261 262 262 261 261 263 267 271 274 276 276 275 274 272 271 278 285 289 290 291 290 287 283 284 287 289 288 286 283 281 277 274 271 269 264 258 254 253
252 257 263 267 272 274 274 274 276 277 274 273 272 271 270 268 268 270 270 271 273 275 275 273 274 277 281 287 291 294 293 288 280 270 262 259 254 248 241 236 233 232 231 235 238 241 246 253 260 265 268 266 263 261 261 265 270 274 276 276 276 275 275 276 278 279 281 283 284 285 283 284 285 285 285 284 283 281 277 273 270 267 264 259 254 252
248 252 256 261 264 267 268 272 273 273 273 273 274 274 274 273 273 272 270 266 266 268 270 266 265 268 274 281 287 291 292 291 287 279 267 258 253 250 247 245 241 239 238 240 241 243 245 248 251 256 263 266 267 266 263 263 265 268 272 275 275 275 275 274 274 274 275 276 278 280 282 283 281 280 279 281 281 280 277 274 270 267 264 261 258 255
253 255 257 262 268 272 274 273 272 272 275 277 277 277 277 277 278 277 274 268 268 272 276 274 273 272 273 276 278 281 284 287 287 284 278 268 258 251 247 248 249 248 246 247 248 248 248 246 245 246 249 256 262 266 268 265 264 264 267 271 272 273 272 273 273 272 271 270 269 269 270 273 274 276 279 280 281 280 280 278 275 271 267 264 262 260
285 280 279 281 283 283 282 279 277 277 278 280 281 281 278 280 284 285 282 278 275 276 277 276 275 275 276 276 276 277 279 280 282 282 279 273 268 262 255 251 252 254 255 253 251 251 251 247 242 239 237 242 250 258 265 264 263 262 264 265 266 267 269 271 272 271 270 268 265 262 259 262 264 268 274 277 279 280 281 279 277 273 269 265 262 261
297 289 285 282 279 278 277 278 279 281 282 284 285 285 283 279 277 276 274 271 269 268 266 268 270 273 275 276 277 278 277 278 279 279 277 274 272 271 268 262 262 264 266 262 258 255 255 253 244 237 231 231 235 243 255 259 262 262 261 260 260 261 265 269 270 269 269 270 269 266 262 263 263 263 265 271 275 278 280 279 277 274 271 267 263 260
287 282 276 271 268 269 270 273 277 280 282 285 286 286 285 278 272 266 262 263 263 263 263 263 264 267 270 274 276 276 276 277 278 278 278 276 275 275 272 270 270 272 276 276 275 273 272 274 269 255 238 229 227 229 239 248 255 260 261 259 257 258 261 266 268 269 268 269 270 269 268 266 265 263 261 266 272 276 279 279 278 277 275 273 268 265